[[{"header":{"parameterUnit":"m.s-1","parameterCategory":1,"la1":30.2991,"la2":30.254,"lo1":-89.0895,"lo2":-89.0444,"dy":0.0017,"dx":0.0017,"nx":28,"ny":28,"refTime":"2024-06-18T21:00:00:Z","depth":0,"parameterNumber":2,"parameterNumberName":"U-component_of_WINDS"},"data":[0,0,0,0,0,0,0,0,0,0,0,0,0,0,0,0,0,0,0,0,0,0,0,0,0,0,0,0,0,0,0,0,0,0,0,0,0,0,0,0,0,0,0,0,0,0,0,0,0,0,0,0,0,0,0,0,0,0,-10.2043,-10.2043,0,-10.2047,-10.2047,-10.2047,-10.1848,-10.1843,-10.1838,-10.1833,-10.1838,-10.1843,-10.1848,0,0,0,0,0,0,0,0,0,0,0,0,0,-10.1863,-10.1867,-10.2043,-10.2043,-10.2043,-10.2047,-10.2047,-10.2047,-10.1849,-10.1843,-10.1836,-10.183,-10.1837,-10.1843,-10.1849,0,0,0,0,0,0,0,0,0,0,0,0,0,-10.1912,-10.1869,-10.2043,-10.1944,-10.1936,-10.2047,-10.2047,-10.2047,-10.1851,-10.1843,-10.1835,-10.1827,-10.1835,-10.1842,-10.1849,-10.2056,0,0,-10.1873,-10.1876,0,0,0,0,0,0,0,0,-10.1909,-10.1919,-10.1959,-10.1951,-10.1942,-10.1939,-10.1986,-10.205,-10.1853,-10.1883,-10.1833,-10.1823,-10.1878,-10.1882,-10.19,-10.2056,-10.2056,-10.1873,-10.1878,-10.1881,-10.1884,0,0,0,0,0,0,0,-10.1906,-10.1917,-10.2044,-10.196,-10.1949,-10.19,-10.1899,-10.1997,-10.1925,-10.188,-10.1865,-10.1868,-10.1872,-10.1893,-10.1899,-10.2056,-10.1873,-10.188,-10.1885,-10.1888,-10.2383,-10.2391,0,0,0,0,0,0,-10.1916,-10.1916,-10.2044,-10.2044,-10.1906,-10.191,-10.1908,-10.1948,-10.1923,-10.1912,-10.1875,-10.1859,-10.1884,-10.189,-10.1898,-10.2138,-10.1881,-10.1888,-10.1893,-10.2374,-10.2385,-10.2394,0,0,0,0,0,0,-10.1913,-10.1929,-10.2044,-10.1976,-10.1987,-10.1922,-10.1968,-10.1952,-10.1973,-10.192,-10.1906,-10.191,-10.1878,-10.1887,-10.2018,-10.2136,-10.1892,-10.1899,-10.2364,-10.2378,-10.2389,-10.2621,0,0,0,0,0,0,-10.1909,-10.193,-10.2007,-10.198,-10.1992,-10.2164,-10.1975,-10.1958,-10.1987,-10.1966,-10.1949,-10.1939,-10.1873,-10.2008,-10.2026,-10.2142,-10.1905,-10.2353,-10.237,-10.2385,-10.2602,-10.264,-10.2672,0,0,0,0,0,-10.1903,-10.2071,-10.2012,-10.2028,-10.2087,-10.2171,-10.2178,-10.2098,-10.1997,-10.2074,-10.2041,-10.1939,-10.2121,-10.2023,-10.2041,-10.2162,-10.2346,-10.2365,-10.2384,-10.2586,-10.2632,-10.2671,0,0,0,0,0,0,-10.2114,-10.2066,-10.1999,-10.2164,-10.2173,-10.2137,-10.2232,-10.2149,-10.2188,-10.2166,-10.2066,-10.2064,-10.2211,-10.2199,-10.2092,-10.2361,-10.2215,-10.2239,-10.2363,-10.2406,-10.244,-10.2439,-10.1911,0,0,0,0,0,-10.218,-10.2252,-10.2206,-10.2356,-10.2364,-10.2299,-10.2332,-10.227,-10.2276,-10.2279,-10.2254,-10.2264,-10.2323,-10.2364,-10.2415,-10.26,-10.2594,-10.2692,-10.2727,-10.2756,-10.2777,-10.2875,-10.2919,-10.2457,-10.2457,-10.2457,0,0,-10.2316,-10.2299,-10.235,-10.2398,-10.2398,-10.2476,-10.2303,-10.2392,-10.2449,-10.2292,-10.2414,-10.2397,-10.2401,-10.2561,-10.263,-10.2555,-10.2904,-10.278,-10.2804,-10.281,-10.29,-10.2943,-10.2982,-10.247,-10.2468,-10.2466,0,0,-10.2603,-10.2598,-10.2722,-10.2726,-10.2729,-10.2684,-10.2715,-10.2692,-10.2675,-10.2796,-10.268,-10.2747,-10.285,-10.2858,-10.2876,-10.3171,-10.3079,-10.319,-10.3372,-10.3469,-10.3505,-10.3537,-10.3642,-10.3681,-10.3212,-10.3213,-10.3213,0,-10.2772,-10.2884,-10.2797,-10.2894,-10.2919,-10.2782,-10.2907,-10.2916,-10.2935,-10.2956,-10.2873,-10.3001,-10.2994,-10.3153,-10.3226,-10.3245,-10.3276,-10.3191,-10.3507,-10.3538,-10.3566,-10.3665,-10.3705,-10.3226,-10.3225,-10.3223,-10.3222,0,-10.3092,-10.3172,-10.3272,-10.3295,-10.3331,-10.3443,-10.3373,-10.342,-10.3356,-10.3321,-10.3447,-10.3434,-10.3481,-10.3515,-10.3453,-10.3667,-10.362,-10.3524,-10.3376,-10.3625,-10.3717,-10.3754,-10.3246,-10.3241,-10.3237,-10.3233,0,0,-10.351,-10.3485,-10.3523,-10.3532,-10.3526,-10.3586,-10.3693,-10.3739,-10.3781,-10.3801,-10.3887,-10.3979,-10.389,-10.3911,-10.3849,-10.3934,-10.4169,-10.3827,-10.3825,-10.3891,-10.4405,-10.4477,-10.4522,-10.4109,-10.4116,-10.4121,-10.4404,0,-10.3789,-10.3968,-10.3893,-10.4079,-10.4153,-10.4025,-10.4117,-10.4124,-10.4095,-10.4153,-10.412,-10.4187,-10.4065,-10.4077,-10.4155,-10.4124,-10.4271,-10.4102,-10.4189,-10.4193,-10.4191,-10.457,-10.4646,-10.4913,-10.4439,-10.4445,-10.445,0,-10.4138,-10.4172,-10.4366,-10.4348,-10.4376,-10.446,-10.4497,-10.4554,-10.456,-10.4533,-10.4558,-10.4478,-10.4581,-10.4435,-10.4577,-10.4464,-10.4495,-10.4486,-10.4494,-10.4498,-10.4336,-10.4584,-10.4996,-10.5037,-10.4505,-10.4501,-10.4497,0,-10.4424,-10.4518,-10.4646,-10.4658,-10.4641,-10.4703,-10.4699,-10.4697,-10.473,-10.4763,-10.4783,-10.4829,-10.4853,-10.489,-10.4825,-10.4724,-10.4977,-10.4824,-10.4957,-10.4959,-10.5014,-10.5012,-10.5438,-10.5037,-10.5036,-10.5036,-10.5035,0,-10.4743,-10.4866,-10.4774,-10.4853,-10.4988,-10.4902,-10.5039,-10.502,-10.502,-10.5094,-10.4986,-10.5058,-10.4967,-10.5031,-10.498,-10.5106,-10.5118,-10.5099,-10.5084,-10.5108,-10.5111,-10.5126,-10.5106,-10.5046,-10.5044,-10.5042,-10.504,0,-10.5084,-10.5028,-10.5159,-10.5132,-10.5129,-10.523,-10.5207,-10.5279,-10.5243,-10.5338,-10.5355,-10.5299,-10.5368,-10.5307,-10.5373,-10.5339,-10.5507,-10.5465,-10.5505,-10.5493,-10.5629,-10.5617,-10.6079,-10.6135,-10.57,-10.5704,-10.5707,0,-10.5291,-10.5383,-10.5367,-10.5408,-10.5411,-10.548,-10.5513,-10.5433,-10.5472,-10.5487,-10.5558,-10.5618,-10.5662,-10.5779,-10.5744,-10.5795,-10.5753,-10.5912,-10.576,-10.5782,-10.5756,-10.5751,-10.576,-10.5943,-10.5948,-10.5952,-10.5955,0,-10.5664,-10.5632,-10.5684,-10.5728,-10.5771,-10.5802,-10.5824,-10.5864,-10.5782,-10.5832,-10.5902,-10.5936,-10.6004,-10.6066,-10.6106,-10.6101,-10.6016,-10.6004,-10.6037,-10.6062,-10.6081,-10.6073,-10.5588,-10.5993,-10.5989,-10.5987,-10.5985,-10.5983,-10.5943,-10.602,-10.6021,-10.6083,-10.6092,-10.6116,-10.6183,-10.6156,-10.6212,-10.6261,-10.6211,-10.6296,-10.6301,-10.6346,-10.6352,-10.6418,-10.6352,-10.64,-10.6412,-10.6425,-10.6445,-10.6072,-10.6425,-10.6424,-10.6423,-10.6422,-10.6421,0,-10.6311,-10.6306,-10.6364,-10.6399,-10.6449,-10.6364,-10.6385,-10.6432,-10.6508,-10.652,-10.6566,-10.6647,-10.6706,-10.6678,-10.673,-10.6788,-10.675,-10.6804,-10.6799,-10.68,-10.6501,-10.6467,-10.6834,-10.6834,-10.6834,-10.6834,-10.6834,-10.6834,-10.6508,-10.6633,-10.6602,-10.673,-10.6724,-10.6806,-10.6825,-10.6847,-10.6856,-10.6951,-10.7,-10.6981,-10.6978,-10.7029,-10.708,-10.707,-10.7094,-10.7163,-10.7139,-10.6861,-10.682,-10.6781,-10.6749,-10.7169,-10.717,-10.7432,-10.7434,-10.7436]},{"header":{"parameterUnit":"m.s-1","parameterCategory":1,"la1":30.2991,"la2":30.254,"lo1":-89.0895,"lo2":-89.0444,"dy":0.0017,"dx":0.0017,"nx":28,"ny":28,"refTime":"2024-06-18T21:00:00:Z","depth":0,"parameterNumber":3,"parameterNumberName":"V-component_of_WINDS"},"data":[0,0,0,0,0,0,0,0,0,0,0,0,0,0,0,0,0,0,0,0,0,0,0,0,0,0,0,0,0,0,0,0,0,0,0,0,0,0,0,0,0,0,0,0,0,0,0,0,0,0,0,0,0,0,0,0,0,0,-0.2797,-0.2797,0,-0.2835,-0.2835,-0.2835,-0.2781,-0.278,-0.2778,-0.2776,-0.2819,-0.2822,-0.2825,0,0,0,0,0,0,0,0,0,0,0,0,0,-0.2682,-0.2684,-0.2797,-0.2797,-0.2798,-0.2834,-0.2835,-0.2835,-0.2782,-0.2779,-0.2777,-0.2775,-0.2818,-0.2822,-0.2825,0,0,0,0,0,0,0,0,0,0,0,0,0,-0.2727,-0.2685,-0.2797,-0.2775,-0.2774,-0.2834,-0.2835,-0.2836,-0.2782,-0.2779,-0.2777,-0.2774,-0.2817,-0.2821,-0.2826,-0.291,0,0,-0.2839,-0.2841,0,0,0,0,0,0,0,0,-0.2724,-0.2731,-0.2778,-0.2777,-0.2775,-0.28,-0.281,-0.2861,-0.2783,-0.2779,-0.2776,-0.2772,-0.2815,-0.282,-0.2833,-0.2912,-0.2914,-0.2839,-0.2842,-0.2844,-0.2845,0,0,0,0,0,0,0,-0.2721,-0.2729,-0.2812,-0.2779,-0.2777,-0.2765,-0.2768,-0.2819,-0.2813,-0.2779,-0.2775,-0.278,-0.2814,-0.2829,-0.2834,-0.2915,-0.2839,-0.2843,-0.2846,-0.2848,-0.3064,-0.3067,0,0,0,0,0,0,-0.272,-0.2727,-0.2811,-0.2813,-0.2742,-0.2769,-0.2773,-0.2795,-0.2812,-0.2812,-0.2783,-0.2778,-0.2823,-0.2829,-0.2835,-0.2935,-0.2844,-0.2848,-0.2851,-0.3061,-0.3065,-0.3068,0,0,0,0,0,0,-0.2718,-0.2728,-0.2809,-0.2769,-0.2778,-0.2774,-0.28,-0.2798,-0.2812,-0.2815,-0.2814,-0.2799,-0.2821,-0.2829,-0.2892,-0.2936,-0.285,-0.2854,-0.3058,-0.3062,-0.3067,-0.3137,0,0,0,0,0,0,-0.2715,-0.2728,-0.276,-0.277,-0.2781,-0.2864,-0.2803,-0.28,-0.282,-0.2813,-0.283,-0.283,-0.2819,-0.2885,-0.2896,-0.2941,-0.2858,-0.3054,-0.306,-0.3065,-0.3131,-0.3143,-0.3154,0,0,0,0,0,-0.2711,-0.2779,-0.2761,-0.2772,-0.282,-0.2867,-0.2873,-0.2858,-0.2823,-0.2856,-0.2857,-0.283,-0.2929,-0.2892,-0.2904,-0.2951,-0.3051,-0.3058,-0.3065,-0.3125,-0.3141,-0.3154,0,0,0,0,0,0,-0.2776,-0.278,-0.2761,-0.2834,-0.285,-0.2858,-0.2898,-0.2875,-0.2903,-0.2896,-0.2878,-0.2882,-0.2949,-0.2955,-0.2914,-0.3033,-0.2984,-0.2994,-0.3026,-0.3041,-0.3053,-0.3051,-0.2861,0,0,0,0,0,-0.2799,-0.2835,-0.2837,-0.2902,-0.2911,-0.2903,-0.2923,-0.2909,-0.2926,-0.2934,-0.294,-0.2958,-0.2993,-0.3017,-0.305,-0.313,-0.3133,-0.3168,-0.318,-0.3189,-0.3199,-0.3241,-0.3257,-0.3091,-0.3091,-0.3091,0,0,-0.2847,-0.2853,-0.2878,-0.2915,-0.2926,-0.2965,-0.2909,-0.2954,-0.2983,-0.2941,-0.3,-0.3005,-0.3024,-0.3096,-0.3128,-0.3104,-0.3245,-0.3198,-0.3206,-0.321,-0.325,-0.3266,-0.328,-0.3096,-0.3095,-0.3094,0,0,-0.2954,-0.2962,-0.3017,-0.3028,-0.3044,-0.3038,-0.3051,-0.3062,-0.3063,-0.3121,-0.309,-0.3125,-0.3186,-0.3201,-0.3216,-0.3326,-0.3302,-0.3337,-0.34,-0.3442,-0.3455,-0.3466,-0.3506,-0.3521,-0.3346,-0.3346,-0.3346,0,-0.3012,-0.3069,-0.3048,-0.3094,-0.3111,-0.3072,-0.3127,-0.314,-0.3167,-0.318,-0.3152,-0.3226,-0.3237,-0.3311,-0.3338,-0.3351,-0.3366,-0.3337,-0.3454,-0.3466,-0.3476,-0.3514,-0.3529,-0.335,-0.335,-0.3349,-0.3349,0,-0.3139,-0.3179,-0.3221,-0.3246,-0.3267,-0.3318,-0.3305,-0.333,-0.3314,-0.3311,-0.337,-0.3381,-0.3414,-0.343,-0.3416,-0.3503,-0.3487,-0.3457,-0.3408,-0.3497,-0.3532,-0.3546,-0.3356,-0.3355,-0.3354,-0.3353,0,0,-0.3292,-0.3302,-0.3318,-0.3328,-0.3342,-0.3373,-0.3421,-0.3452,-0.3474,-0.3493,-0.3534,-0.3585,-0.3556,-0.3574,-0.3561,-0.3597,-0.3684,-0.3562,-0.3562,-0.3585,-0.378,-0.3804,-0.3821,-0.3667,-0.3669,-0.3671,-0.3779,0,-0.3399,-0.3481,-0.3463,-0.3544,-0.3581,-0.3542,-0.3584,-0.3598,-0.3596,-0.3627,-0.3625,-0.3662,-0.3621,-0.3631,-0.3665,-0.3666,-0.3723,-0.3658,-0.3706,-0.3708,-0.3704,-0.3839,-0.3865,-0.3966,-0.3792,-0.3794,-0.3796,0,-0.3536,-0.3558,-0.3643,-0.365,-0.3664,-0.3702,-0.3728,-0.3758,-0.3773,-0.3768,-0.3787,-0.3766,-0.3814,-0.3762,-0.3829,-0.3785,-0.3803,-0.3806,-0.381,-0.3815,-0.3759,-0.385,-0.3997,-0.4013,-0.3818,-0.3816,-0.3814,0,-0.364,-0.3691,-0.3748,-0.3758,-0.3767,-0.3794,-0.38,-0.3811,-0.383,-0.3853,-0.3865,-0.3894,-0.3911,-0.3934,-0.3921,-0.3884,-0.399,-0.3938,-0.3989,-0.399,-0.4015,-0.4014,-0.4169,-0.4024,-0.4024,-0.4024,-0.4023,0,-0.3763,-0.3816,-0.3794,-0.383,-0.3888,-0.3866,-0.3925,-0.3926,-0.3936,-0.3971,-0.394,-0.3974,-0.3954,-0.3986,-0.3977,-0.4034,-0.4041,-0.404,-0.4037,-0.4044,-0.4044,-0.4057,-0.405,-0.4028,-0.4027,-0.4026,-0.4025,0,-0.389,-0.3877,-0.3936,-0.3939,-0.3941,-0.3984,-0.3987,-0.402,-0.4014,-0.4059,-0.4068,-0.406,-0.4096,-0.4085,-0.4125,-0.4118,-0.4191,-0.4178,-0.4186,-0.4183,-0.4236,-0.4232,-0.4406,-0.4428,-0.4268,-0.4269,-0.427,0,-0.397,-0.401,-0.4016,-0.4036,-0.4043,-0.4077,-0.4095,-0.4075,-0.4096,-0.4113,-0.4145,-0.4178,-0.4203,-0.4264,-0.4262,-0.4292,-0.4281,-0.434,-0.4286,-0.4291,-0.4283,-0.4282,-0.4286,-0.4352,-0.4354,-0.4355,-0.4356,0,-0.4114,-0.4105,-0.4132,-0.4157,-0.418,-0.4199,-0.4215,-0.4234,-0.4214,-0.4239,-0.4275,-0.4295,-0.4334,-0.4368,-0.4395,-0.4401,-0.4376,-0.4373,-0.4387,-0.4395,-0.4398,-0.4398,-0.4217,-0.437,-0.4368,-0.4367,-0.4367,-0.4366,-0.422,-0.4254,-0.4263,-0.4294,-0.4303,-0.4319,-0.435,-0.4347,-0.4376,-0.4405,-0.4391,-0.4432,-0.4444,-0.4478,-0.4487,-0.452,-0.4498,-0.4517,-0.4523,-0.4528,-0.4535,-0.4391,-0.4525,-0.4524,-0.4524,-0.4524,-0.4523,0,-0.4363,-0.4366,-0.4395,-0.4418,-0.4443,-0.4414,-0.443,-0.4453,-0.4489,-0.4502,-0.4527,-0.4568,-0.46,-0.4599,-0.4629,-0.4655,-0.4645,-0.4664,-0.4663,-0.4665,-0.4553,-0.4539,-0.4672,-0.4672,-0.4672,-0.4672,-0.4672,-0.4672,-0.4441,-0.4495,-0.4487,-0.4546,-0.4549,-0.4588,-0.46,-0.4614,-0.4624,-0.467,-0.4696,-0.4695,-0.4702,-0.4732,-0.476,-0.4759,-0.4772,-0.4796,-0.4791,-0.4688,-0.4673,-0.4659,-0.4645,-0.4799,-0.4799,-0.49,-0.4901,-0.4902]}]]